Time,TemperatureF,DewpointF,PressureIn,WindDirection,WindDirectionDegrees,WindSpeedMPH,WindSpeedGustMPH,Humidity,HourlyPrecipIn,Conditions,Clouds,dailyrainin,SolarRadiationWatts/m^2,SoftwareType,DateUTC
2013-01-27 00:03:00,21.0,16.0,-100.00,NW,310,1.0,9.0,80,0.00,,,0.00,0.000000,,2013-01-27 05:03:00,
2013-01-27 00:12:00,21.0,16.0,-100.00,NW,310,1.0,9.0,80,0.00,,,0.00,0.000000,,2013-01-27 05:12:00,
2013-01-27 00:32:00,20.0,15.0,-100.00,NW,306,2.0,4.0,82,0.00,,,0.00,0.000000,,2013-01-27 05:32:00,
2013-01-27 00:42:00,20.0,15.0,-100.00,NW,306,2.0,4.0,82,0.00,,,0.00,0.000000,,2013-01-27 05:42:00,
2013-01-27 00:52:00,20.0,15.0,-100.00,NW,306,2.0,4.0,82,0.00,,,0.00,0.000000,,2013-01-27 05:52:00,
2013-01-27 01:02:00,20.0,15.0,-100.00,NW,306,2.0,4.0,82,0.00,,,0.00,0.000000,,2013-01-27 06:02:00,
2013-01-27 01:11:00,20.0,15.0,-100.00,NW,306,2.0,4.0,82,0.00,,,0.00,0.000000,,2013-01-27 06:11:00,
2013-01-27 01:32:00,20.0,15.0,-100.00,WNW,303,1.0,6.0,80,0.00,,,0.00,0.000000,,2013-01-27 06:32:00,
2013-01-27 01:42:00,20.0,15.0,-100.00,WNW,303,1.0,6.0,80,0.00,,,0.00,0.000000,,2013-01-27 06:42:00,
2013-01-27 01:52:00,20.0,15.0,-100.00,WNW,303,1.0,6.0,80,0.00,,,0.00,0.000000,,2013-01-27 06:52:00,
2013-01-27 02:01:00,20.0,15.0,-100.00,WNW,303,1.0,6.0,80,0.00,,,0.00,0.000000,,2013-01-27 07:01:00,
2013-01-27 02:14:00,20.0,15.0,-100.00,WNW,303,1.0,6.0,80,0.00,,,0.00,0.000000,,2013-01-27 07:14:00,
2013-01-27 02:32:00,20.0,15.0,-100.00,NNE,16,1.0,4.0,79,0.00,,,0.00,0.000000,,2013-01-27 07:32:00,
2013-01-27 02:42:00,20.0,15.0,-100.00,NNE,16,1.0,4.0,79,0.00,,,0.00,0.000000,,2013-01-27 07:42:00,
2013-01-27 02:52:00,20.0,15.0,-100.00,NNE,16,1.0,4.0,79,0.00,,,0.00,0.000000,,2013-01-27 07:52:00,
2013-01-27 03:02:00,20.0,15.0,-100.00,NNE,16,1.0,4.0,79,0.00,,,0.00,0.000000,,2013-01-27 08:02:00,
2013-01-27 03:12:00,20.0,15.0,-100.00,NNE,16,1.0,4.0,79,0.00,,,0.00,0.000000,,2013-01-27 08:12:00,
2013-01-27 03:42:00,19.0,14.0,-100.00,SE,134,2.0,4.0,80,0.00,,,0.00,0.000000,,2013-01-27 08:42:00,
2013-01-27 03:52:00,19.0,14.0,-100.00,SE,134,2.0,4.0,80,0.00,,,0.00,0.000000,,2013-01-27 08:52:00,
2013-01-27 04:03:00,19.0,14.0,-100.00,SE,134,2.0,4.0,80,0.00,,,0.00,0.000000,,2013-01-27 09:03:00,
2013-01-27 04:11:00,19.0,14.0,-100.00,SE,134,2.0,4.0,80,0.00,,,0.00,0.000000,,2013-01-27 09:11:00,
2013-01-27 04:32:00,18.0,13.0,-100.00,ESE,113,0.0,2.0,82,0.00,,,0.00,0.000000,,2013-01-27 09:32:00,
2013-01-27 04:42:00,18.0,13.0,-100.00,ESE,113,0.0,2.0,82,0.00,,,0.00,0.000000,,2013-01-27 09:42:00,
2013-01-27 04:52:00,18.0,13.0,-100.00,ESE,113,0.0,2.0,82,0.00,,,0.00,0.000000,,2013-01-27 09:52:00,
2013-01-27 05:01:00,18.0,13.0,-100.00,ESE,113,0.0,2.0,82,0.00,,,0.00,0.000000,,2013-01-27 10:01:00,
2013-01-27 05:11:00,18.0,13.0,-100.00,ESE,113,0.0,2.0,82,0.00,,,0.00,0.000000,,2013-01-27 10:11:00,
2013-01-27 05:42:00,17.0,13.0,-100.00,East,84,2.0,3.0,85,0.00,,,0.00,0.000000,,2013-01-27 10:42:00,
2013-01-27 05:52:00,17.0,13.0,-100.00,East,84,2.0,3.0,85,0.00,,,0.00,0.000000,,2013-01-27 10:52:00,
2013-01-27 06:01:00,17.0,13.0,-100.00,East,84,2.0,3.0,85,0.00,,,0.00,0.000000,,2013-01-27 11:01:00,
2013-01-27 06:11:00,17.0,13.0,-100.00,East,84,2.0,3.0,85,0.00,,,0.00,0.000000,,2013-01-27 11:11:00,
2013-01-27 06:42:00,17.0,14.0,-100.00,East,95,2.0,4.0,86,0.00,,,0.00,0.000000,,2013-01-27 11:42:00,
2013-01-27 06:52:00,17.0,14.0,-100.00,East,95,2.0,4.0,86,0.00,,,0.00,0.000000,,2013-01-27 11:52:00,
2013-01-27 07:02:00,17.0,14.0,-100.00,East,95,2.0,4.0,86,0.00,,,0.00,0.000000,,2013-01-27 12:02:00,
2013-01-27 07:12:00,17.0,14.0,-100.00,East,95,2.0,4.0,86,0.00,,,0.00,0.000000,,2013-01-27 12:12:00,
2013-01-27 07:33:00,17.0,14.0,-100.00,ENE,68,2.0,3.0,88,0.00,,,0.00,0.000000,,2013-01-27 12:33:00,
2013-01-27 07:42:00,17.0,14.0,-100.00,ENE,68,2.0,3.0,88,0.00,,,0.00,0.000000,,2013-01-27 12:42:00,
2013-01-27 07:52:00,17.0,14.0,-100.00,ENE,68,2.0,3.0,88,0.00,,,0.00,0.000000,,2013-01-27 12:52:00,
2013-01-27 08:02:00,17.0,14.0,-100.00,ENE,68,2.0,3.0,88,0.00,,,0.00,0.000000,,2013-01-27 13:02:00,
2013-01-27 08:12:00,17.0,14.0,-100.00,ENE,68,2.0,3.0,88,0.00,,,0.00,0.000000,,2013-01-27 13:12:00,
2013-01-27 08:42:00,18.0,14.0,-100.00,SE,127,3.0,5.0,85,0.00,,,0.00,2.000000,,2013-01-27 13:42:00,
2013-01-27 08:52:00,18.0,14.0,-100.00,SE,127,3.0,5.0,85,0.00,,,0.00,2.000000,,2013-01-27 13:52:00,
2013-01-27 09:02:00,18.0,14.0,-100.00,SE,127,3.0,5.0,85,0.00,,,0.00,2.000000,,2013-01-27 14:02:00,
2013-01-27 09:12:00,18.0,14.0,-100.00,SE,127,3.0,5.0,85,0.00,,,0.00,2.000000,,2013-01-27 14:12:00,
2013-01-27 09:53:00,21.0,15.0,-100.00,ESE,108,3.0,7.0,78,0.00,,,0.00,13.000000,,2013-01-27 14:53:00,
2013-01-27 10:02:00,21.0,15.0,-100.00,ESE,108,3.0,7.0,78,0.00,,,0.00,13.000000,,2013-01-27 15:02:00,
2013-01-27 10:12:00,21.0,15.0,-100.00,ESE,108,3.0,7.0,78,0.00,,,0.00,13.000000,,2013-01-27 15:12:00,
2013-01-27 10:33:00,29.0,19.0,-100.00,SSE,149,3.0,6.0,65,0.00,,,0.00,35.000000,,2013-01-27 15:33:00,
2013-01-27 10:42:00,29.0,19.0,-100.00,SSE,149,3.0,6.0,65,0.00,,,0.00,35.000000,,2013-01-27 15:42:00,
2013-01-27 10:53:00,29.0,19.0,-100.00,SSE,149,3.0,6.0,65,0.00,,,0.00,35.000000,,2013-01-27 15:53:00,
2013-01-27 11:03:00,29.0,19.0,-100.00,SSE,149,3.0,6.0,65,0.00,,,0.00,35.000000,,2013-01-27 16:03:00,
2013-01-27 11:12:00,29.0,19.0,-100.00,SSE,149,3.0,6.0,65,0.00,,,0.00,35.000000,,2013-01-27 16:12:00,
2013-01-27 11:33:00,35.0,20.0,-100.00,SSE,156,3.0,9.0,54,0.00,,,0.00,60.000000,,2013-01-27 16:33:00,
2013-01-27 11:42:00,35.0,20.0,-100.00,SSE,156,3.0,9.0,54,0.00,,,0.00,60.000000,,2013-01-27 16:42:00,
2013-01-27 11:53:00,35.0,20.0,-100.00,SSE,156,3.0,9.0,54,0.00,,,0.00,60.000000,,2013-01-27 16:53:00,
2013-01-27 12:02:00,35.0,20.0,-100.00,SSE,156,3.0,9.0,54,0.00,,,0.00,60.000000,,2013-01-27 17:02:00,
2013-01-27 12:12:00,35.0,20.0,-100.00,SSE,156,3.0,9.0,54,0.00,,,0.00,60.000000,,2013-01-27 17:12:00,
2013-01-27 12:42:00,35.0,19.0,-100.00,SSE,152,4.0,8.0,51,0.10,,,0.10,117.000000,,2013-01-27 17:42:00,
2013-01-27 12:53:00,35.0,19.0,-100.00,SSE,152,4.0,8.0,51,0.10,,,0.10,117.000000,,2013-01-27 17:53:00,
2013-01-27 13:03:00,35.0,19.0,-100.00,SSE,152,4.0,8.0,51,0.10,,,0.10,117.000000,,2013-01-27 18:03:00,
2013-01-27 13:12:00,35.0,19.0,-100.00,SSE,152,4.0,8.0,51,0.10,,,0.10,117.000000,,2013-01-27 18:12:00,
2013-01-27 13:42:00,37.0,21.0,-100.00,SE,134,3.0,6.0,51,0.12,,,0.22,209.000000,,2013-01-27 18:42:00,
2013-01-27 13:53:00,37.0,21.0,-100.00,SE,134,3.0,6.0,51,0.12,,,0.22,209.000000,,2013-01-27 18:53:00,
2013-01-27 14:02:00,37.0,21.0,-100.00,SE,134,3.0,6.0,51,0.12,,,0.22,209.000000,,2013-01-27 19:02:00,
2013-01-27 14:12:00,37.0,21.0,-100.00,SE,134,3.0,6.0,51,0.12,,,0.22,209.000000,,2013-01-27 19:12:00,
2013-01-27 14:33:00,35.0,18.0,-100.00,SE,124,3.0,7.0,50,0.05,,,0.27,301.000000,,2013-01-27 19:33:00,
2013-01-27 14:42:00,35.0,18.0,-100.00,SE,124,3.0,7.0,50,0.05,,,0.27,301.000000,,2013-01-27 19:42:00,
2013-01-27 14:52:00,35.0,18.0,-100.00,SE,124,3.0,7.0,50,0.05,,,0.27,301.000000,,2013-01-27 19:52:00,
2013-01-27 15:03:00,35.0,18.0,-100.00,SE,124,3.0,7.0,50,0.05,,,0.27,301.000000,,2013-01-27 20:03:00,
2013-01-27 15:12:00,35.0,18.0,-100.00,SE,124,3.0,7.0,50,0.05,,,0.27,301.000000,,2013-01-27 20:12:00,
2013-01-27 15:42:00,35.0,20.0,-100.00,SE,124,3.0,7.0,55,0.02,,,0.29,196.000000,,2013-01-27 20:42:00,
2013-01-27 15:52:00,35.0,20.0,-100.00,SE,124,3.0,7.0,55,0.02,,,0.29,196.000000,,2013-01-27 20:52:00,
2013-01-27 16:02:00,35.0,20.0,-100.00,SE,124,3.0,7.0,55,0.02,,,0.29,196.000000,,2013-01-27 21:02:00,
2013-01-27 16:12:00,35.0,20.0,-100.00,SE,124,3.0,7.0,55,0.02,,,0.29,196.000000,,2013-01-27 21:12:00,
2013-01-27 16:33:00,33.0,21.0,-100.00,SE,133,3.0,5.0,60,0.00,,,0.29,107.000000,,2013-01-27 21:33:00,
2013-01-27 16:43:00,33.0,21.0,-100.00,SE,133,3.0,5.0,60,0.00,,,0.29,107.000000,,2013-01-27 21:43:00,
2013-01-27 16:52:00,33.0,21.0,-100.00,SE,133,3.0,5.0,60,0.00,,,0.29,107.000000,,2013-01-27 21:52:00,
2013-01-27 17:03:00,33.0,21.0,-100.00,SE,133,3.0,5.0,60,0.00,,,0.29,107.000000,,2013-01-27 22:03:00,
2013-01-27 17:12:00,33.0,21.0,-100.00,SE,133,3.0,5.0,60,0.00,,,0.29,107.000000,,2013-01-27 22:12:00,
2013-01-27 17:42:00,33.0,21.0,-100.00,SSE,149,3.0,6.0,62,0.00,,,0.29,66.000000,,2013-01-27 22:42:00,
2013-01-27 17:52:00,33.0,21.0,-100.00,SSE,149,3.0,6.0,62,0.00,,,0.29,66.000000,,2013-01-27 22:52:00,
2013-01-27 18:02:00,33.0,21.0,-100.00,SSE,149,3.0,6.0,62,0.00,,,0.29,66.000000,,2013-01-27 23:02:00,
2013-01-27 18:12:00,33.0,21.0,-100.00,SSE,149,3.0,6.0,62,0.00,,,0.29,66.000000,,2013-01-27 23:12:00,
2013-01-27 18:32:00,31.0,21.0,-100.00,SSE,148,3.0,5.0,66,0.00,,,0.29,9.000000,,2013-01-27 23:32:00,
2013-01-27 18:42:00,31.0,21.0,-100.00,SSE,148,3.0,5.0,66,0.00,,,0.29,9.000000,,2013-01-27 23:42:00,
2013-01-27 18:53:00,31.0,21.0,-100.00,SSE,148,3.0,5.0,66,0.00,,,0.29,9.000000,,2013-01-27 23:53:00,
2013-01-27 19:02:00,31.0,21.0,-100.00,SSE,148,3.0,5.0,66,0.00,,,0.29,9.000000,,2013-01-28 00:02:00,
2013-01-27 19:12:00,31.0,21.0,-100.00,SSE,148,3.0,5.0,66,0.00,,,0.29,9.000000,,2013-01-28 00:12:00,
2013-01-27 19:42:00,31.0,22.0,-100.00,SE,141,3.0,5.0,68,0.00,,,0.29,0.000000,,2013-01-28 00:42:00,
2013-01-27 19:52:00,31.0,22.0,-100.00,SE,141,3.0,5.0,68,0.00,,,0.29,0.000000,,2013-01-28 00:52:00,
2013-01-27 20:02:00,31.0,22.0,-100.00,SE,141,3.0,5.0,68,0.00,,,0.29,0.000000,,2013-01-28 01:02:00,
2013-01-27 20:12:00,31.0,22.0,-100.00,SE,141,3.0,5.0,68,0.00,,,0.29,0.000000,,2013-01-28 01:12:00,
2013-01-27 20:42:00,31.0,22.0,-100.00,SE,144,3.0,4.0,70,0.00,,,0.29,0.000000,,2013-01-28 01:42:00,
2013-01-27 20:52:00,31.0,22.0,-100.00,SE,144,3.0,4.0,70,0.00,,,0.29,0.000000,,2013-01-28 01:52:00,
2013-01-27 21:02:00,31.0,22.0,-100.00,SE,144,3.0,4.0,70,0.00,,,0.29,0.000000,,2013-01-28 02:02:00,
2013-01-27 21:11:00,31.0,22.0,-100.00,SE,144,3.0,4.0,70,0.00,,,0.29,0.000000,,2013-01-28 02:11:00,
2013-01-27 21:42:00,31.0,22.0,-100.00,SE,128,2.0,4.0,69,0.00,,,0.29,0.000000,,2013-01-28 02:42:00,
2013-01-27 21:53:00,31.0,22.0,-100.00,SE,128,2.0,4.0,69,0.00,,,0.29,0.000000,,2013-01-28 02:53:00,
2013-01-27 22:02:00,31.0,22.0,-100.00,SE,128,2.0,4.0,69,0.00,,,0.29,0.000000,,2013-01-28 03:02:00,
2013-01-27 22:12:00,31.0,22.0,-100.00,SE,128,2.0,4.0,69,0.00,,,0.29,0.000000,,2013-01-28 03:12:00,
2013-01-27 22:32:00,31.0,22.0,-100.00,SE,144,3.0,4.0,70,0.00,,,0.29,0.000000,,2013-01-28 03:32:00,
2013-01-27 22:42:00,31.0,22.0,-100.00,SE,144,3.0,4.0,70,0.00,,,0.29,0.000000,,2013-01-28 03:42:00,
2013-01-27 22:53:00,31.0,22.0,-100.00,SE,144,3.0,4.0,70,0.00,,,0.29,0.000000,,2013-01-28 03:53:00,
2013-01-27 23:02:00,31.0,22.0,-100.00,SE,144,3.0,4.0,70,0.00,,,0.29,0.000000,,2013-01-28 04:02:00,
2013-01-27 23:12:00,31.0,22.0,-100.00,SE,144,3.0,4.0,70,0.00,,,0.29,0.000000,,2013-01-28 04:12:00,
2013-01-27 23:32:00,31.0,23.0,-100.00,SE,141,3.0,5.0,71,0.00,,,0.29,0.000000,,2013-01-28 04:32:00,
2013-01-27 23:42:00,31.0,23.0,-100.00,SE,141,3.0,5.0,71,0.00,,,0.29,0.000000,,2013-01-28 04:42:00,
2013-01-27 23:52:00,31.0,23.0,-100.00,SE,141,3.0,5.0,71,0.00,,,0.29,0.000000,,2013-01-28 04:52:00,